Meteo Giornale » Osservazioni meteo Stati Uniti (USA) » Los Angeles

ore: 18:53 - Osservazioni Meteo Los Angeles
Lat. 33° 56' N Lon. 118° 23' W Alt. 38 metri s.l.m.

coperto America/Los_Angeles

12 °C

Coperto

Temp. 24 Ore

8 °C

14 °C

Est/Sud-Est

9.3 Km/h

Dew point 6 °C

Umidità 66 %

Visibilità  10 Km

Il sole sorge alle ore 06:51

Il sole tramonta alle ore 17:20

Data e Ora Cielo e Fenomeni T °C DP °C Um. % Pres. hPa Vis. km Vento km/h
Oggi h: 18:53 coperto Coperto 12 6 66 1018 10 E/SE 9.3
Oggi h: 17:53 molto_nuvoloso Molto Nuvoloso 12 6 66 1018 10 SE 7.4
Oggi h: 16:53 molto_nuvoloso Molto Nuvoloso 13 5 58 1018 10 S/SE 13
Oggi h: 15:53 nuvoloso Nuvoloso 13 4 54 1018 10 SE 18.5
Oggi h: 14:53 nuvoloso Nuvoloso 14 4 50 1018 10 SE 18.5
Oggi h: 13:53 molto_nuvoloso Molto Nuvoloso 14 4 50 1019 10 S/SE 16.7
Oggi h: 12:53 molto_nuvoloso Molto Nuvoloso 14 4 50 1020 10 E/SE 25.9
Oggi h: 11:53 molto_nuvoloso Molto Nuvoloso 13 4 54 1021 10 SE 27.8
Oggi h: 10:53 molto_nuvoloso Molto Nuvoloso 13 3 50 1022 10 E/SE 20.3
Oggi h: 09:53 molto_nuvoloso Molto Nuvoloso 12 2 50 1022 10 E/SE 18.5
Oggi h: 08:53 molto_nuvoloso Molto Nuvoloso 11 1 50 1022 10 E/SE 22.2
Oggi h: 07:53 molto_nuvoloso Molto Nuvoloso 9 1 57 1022 10 E 14.8
Oggi h: 06:53 molto_nuvoloso Molto Nuvoloso 9 1 57 1021 10 E 9.3
Oggi h: 05:53 nuvoloso Nuvoloso 8 1 61 1021 10 E 11.1
Oggi h: 03:53 molto_nuvoloso Molto Nuvoloso 9 1 57 1021 10 E 11.1
Oggi h: 02:53 molto_nuvoloso Molto Nuvoloso 9 1 57 1021 10 E 11.1
Oggi h: 01:53 molto_nuvoloso Molto Nuvoloso 9 1 57 1022 10 E/SE 11.1
Oggi h: 00:53 coperto Coperto 9 2 61 1021 10 N 11.1
Ieri h: 23:53 molto_nuvoloso Molto Nuvoloso 9 2 61 1021 10 E 13
Ieri h: 22:53 molto_nuvoloso Molto Nuvoloso 9 1 57 1021 10 E 9.3
Ieri h: 21:53 poco_nuvoloso Poco Nuvoloso 9 1 57 1020 10 E 13
Ieri h: 20:53 poco_nuvoloso Poco Nuvoloso 9 1 57 1020 10 E 9.3
Ieri h: 19:53 nuvoloso Nuvoloso 11 1 50 1019 10 N 11.1
Ieri h: 18:53 molto_nuvoloso Molto Nuvoloso 11 0 46 1019 10 N 5.5